Weather History for Middletown, PA

Change the Weather History Date:

Wednesday, April 17, 2013

  Actual Average Record
Temperature  
Mean Temperature 62 °F 53 °F  
Max Temperature 69 °F 63 °F 91 °F (2002)
Min Temperature 54 °F 42 °F 29 °F (1980)
Degree Days  
Heating Degree Days 3 12  
Month to date heating degree days 215 260  
Since 1 July heating degree days 4815 4971  
Cooling Degree Days 0 0  
Month to date cooling degree days 7 0  
Year to date cooling degree days 7 1  
Growing Degree Days 10 (Base 50)    
Moisture  
Dew Point 49 °F    
Average Humidity 67    
Maximum Humidity 100    
Minimum Humidity 34    
Precipitation  
Precipitation 0.06 in 0.10 in 1.01 in (1910)
Month to date precipitation 0.69 1.76  
Year to date precipitation 8.08 10.40  
Snow  
Snow 0.00 in - - ()
Month to date snowfall T  
Since 1 July snowfall 17.0  
Snow Depth 0.00 in    
Sea Level Pressure  
Sea Level Pressure 30.19 in    
Wind  
Wind Speed 4 mph (NW)    
Max Wind Speed 10 mph    
Max Gust Speed 14 mph    
Visibility 8 miles    
Events Rain    
T = Trace of Precipitation, MM = Missing Value Source: NWS Daily Summary

Daily Weather History Graph

Daily Weather History Graph

Search for Another Location

Airport:

Trip Planner

Search our weather history database for the weather conditions in past years. The results will help you decide how hot, cold, wet, or windy it might be!

Date:

Astronomy

Apr. 17, 2013 Rise Set
Actual Time 6:25 AM EDT 7:48 PM EDT
Civil Twilight 5:57 AM EDT 8:16 PM EDT
Nautical Twilight 5:23 AM EDT 8:50 PM EDT
Astronomical Twilight 4:47 AM EDT 9:26 PM EDT
Moon 11:37 AM EDT (4/17) 1:24 AM EDT (4/17)
Length of Visible Light 14h 19m
Length of Day
13h 22m
Waxing Crescent, 42% of the Moon is Illuminated
Apr 17
Waxing Crescent
Apr 18
First Quarter
Apr 25
Full
May 2
Last Quarter
May 9
New

Hourly Weather History & Observations

Time (EDT) Temp. Dew Point Humidity Pressure Visibility Wind Dir Wind Speed Gust Speed Precip Events Conditions
12:56 AM 62.1 °F 54.0 °F 75% 30.14 in 10.0 mi SW 4.6 mph - N/A   Overcast
1:56 AM 57.9 °F 55.0 °F 90% 30.14 in 9.0 mi Calm Calm - 0.01 in Rain Light Rain
2:56 AM 55.9 °F 54.0 °F 93% 30.12 in 8.0 mi Calm Calm - 0.05 in Rain Light Rain
3:56 AM 57.9 °F 55.9 °F 93% 30.11 in 8.0 mi NNE 3.5 mph - 0.00 in   Overcast
4:56 AM 55.0 °F 55.0 °F 100% 30.12 in 4.0 mi NNW 3.5 mph - N/A   Mostly Cloudy
5:33 AM 57.2 °F 57.2 °F 100% 30.14 in 5.0 mi NW 4.6 mph - N/A   Overcast
5:56 AM 57.9 °F 57.0 °F 97% 30.15 in 5.0 mi NW 5.8 mph - N/A   Overcast
6:42 AM 57.2 °F 55.4 °F 94% 30.16 in 2.0 mi NW 5.8 mph - N/A   Mostly Cloudy
6:56 AM 57.0 °F 55.9 °F 96% 30.17 in 2.5 mi WNW 5.8 mph - N/A   Overcast
7:03 AM 57.2 °F 55.4 °F 94% 30.18 in 3.0 mi NW 6.9 mph - N/A   Mostly Cloudy
7:12 AM 57.2 °F 55.4 °F 94% 30.18 in 4.0 mi WNW 6.9 mph - N/A   Mostly Cloudy
7:44 AM 55.4 °F 55.4 °F 100% 30.20 in 4.0 mi NW 10.4 mph - N/A   Overcast
7:56 AM 57.0 °F 55.0 °F 93% 30.21 in 7.0 mi NNE 6.9 mph - N/A   Overcast
8:56 AM 55.9 °F 50.0 °F 80% 30.23 in 10.0 mi NE 4.6 mph - N/A   Overcast
9:12 AM 55.4 °F 50.0 °F 82% 30.23 in 10.0 mi NNE 6.9 mph - N/A   Overcast
9:56 AM 55.9 °F 48.0 °F 75% 30.25 in 10.0 mi ENE 6.9 mph - N/A   Overcast
10:56 AM 55.9 °F 46.0 °F 69% 30.26 in 10.0 mi NE 5.8 mph - N/A   Overcast
11:56 AM 57.9 °F 46.9 °F 67% 30.25 in 9.0 mi Calm Calm - N/A   Overcast
12:14 PM 57.2 °F 48.2 °F 72% 30.24 in 10.0 mi South 3.5 mph - N/A   Overcast
12:56 PM 59.0 °F 46.4 °F 63% 30.23 in 10.0 mi NW 8.1 mph - N/A   Overcast
1:56 PM 62.1 °F 45.0 °F 53% 30.23 in 10.0 mi WNW 4.6 mph - N/A   Mostly Cloudy
2:56 PM 64.0 °F 44.1 °F 48% 30.21 in 10.0 mi West 5.8 mph - N/A   Mostly Cloudy
3:56 PM 66.9 °F 41.0 °F 39% 30.20 in 10.0 mi WNW 5.8 mph - N/A   Scattered Clouds
4:56 PM 66.0 °F 39.0 °F 37% 30.19 in 10.0 mi Calm Calm - N/A   Mostly Cloudy
5:56 PM 66.0 °F 37.9 °F 36% 30.19 in 10.0 mi WNW 3.5 mph - N/A   Mostly Cloudy
6:56 PM 64.9 °F 37.9 °F 37% 30.19 in 10.0 mi WNW 3.5 mph - N/A   Mostly Cloudy
7:56 PM 59.0 °F 37.0 °F 44% 30.20 in 10.0 mi SE 3.5 mph - N/A   Partly Cloudy
8:56 PM 57.0 °F 44.1 °F 62% 30.22 in 10.0 mi Calm Calm - N/A   Partly Cloudy
9:56 PM 55.0 °F 46.0 °F 72% 30.22 in 10.0 mi Calm Calm - N/A   Scattered Clouds
10:56 PM 55.9 °F 48.0 °F 75% 30.23 in 10.0 mi Calm Calm - N/A   Overcast
11:56 PM 57.0 °F 48.9 °F 74% 30.24 in 10.0 mi Calm Calm - N/A   Overcast